Regional Weather Roundup
Issued by NWS

Home | Current Version | Previous Version | Text Only | Print | Product List | Glossary On
Versions: 1 2 3 4 5 6 7 8 9 10 11 12 13 14 15 16 17 18 19 20 21 22 23 24 25 26 27
000
ASUS44 KLIX 010811
RWRLA
LOUISIANA WEATHER ROUNDUP
NATIONAL WEATHER SERVICE NEW ORLEANS LA
300 AM CDT SAT OCT 01 2016

NOTE: "FAIR" INDICATES FEW OR NO CLOUDS BELOW 12,000 FEET WITH NO
      SIGNIFICANT WEATHER AND/OR OBSTRUCTIONS TO VISIBILITY.
      SKY/WX - SKY CONDITION AND SIGNIFICANT WEATHER.
      TMP - AIR TEMPERATURE.    DP   - DEWPOINT TEMPERATURE.
      RH  - RELATIVE HUMIDITY.  PRES - PRESSURE.
      HX  - HEAT INDEX.         WCI  - WIND CHILL INDEX.

*  THESE STATIONS ARE NOT NWS OR FAA STATIONS AND ARE NOT UNDER
   NWS QUALITY CONTROL.

LAZ040-048-061>063-065-066-069-010900-
SOUTHEAST LOUISIANA

CITY           SKY/WX    TMP DP  RH WIND       PRES   REMARKS
N.O. AUDUBON   NOT AVBL
N.O. INTL ARPT PTCLDY    69  61  75 CALM      30.05F
N.O. LAKEFRONT CLEAR     75  58  55 NE6       30.06F
N.O. DOWNTOWN*   N/A     74  59  59 CALM      30.06F
RESERVE*       FAIR      63  62  94 CALM      30.06F
SLIDELL        CLEAR     58  57  97 CALM      30.05F
BATON ROUGE    CLEAR     60  58  92 CALM      30.07S
BOOTHVILLE     CLEAR     71  63  75 SE3       30.06F
BELLE CHASSE   CLEAR     61  59  93 CALM      30.05F
BOGALUSA*      FAIR      57  54  90 CALM      30.08S
GALLIANO*      SUNNY    N/A N/A N/A CALM      30.06S
NEW ROADS*     FAIR      57  56  97 MISG      30.07F
GONZALES*      FAIR      59  59  99 CALM      30.06S
HAMMOND*       CLEAR     57  54  88 CALM      30.07S
HOUMA*         CLEAR     59  58  99 CALM      30.06S FOG
PORT FOURCHON* MOSUNNY   75  61  60 NE5       30.05F

$$

LAZ041-044-053-054-010900-
SOUTHWEST LOUISIANA

CITY           SKY/WX    TMP DP  RH WIND       PRES   REMARKS
LAKE CHARLES   PTCLDY    61  59  93 CALM      30.07S
LAFAYETTE      CLOUDY    63  60  90 CALM      30.07S
PATTERSON      PTCLDY    62  61  96 CALM      30.07S
SALT POINT     NOT AVBL
NEW IBERIA     CLEAR     61  58  90 CALM      30.07F
CHENAULT AIRPK PTCLDY    60  59  96 CALM      30.08S

$$

LAZ027-028-010900-
CENTRAL LOUISIANA

CITY           SKY/WX    TMP DP  RH WIND       PRES   REMARKS
FORT POLK      CLEAR     58  56  93 S1        30.08R
ALEXANDRIA INT CLEAR     57  56  96 CALM      30.06S FOG
ALEXANDRIA     CLEAR     54  54 100 CALM      30.08S FOG

$$

LAZ001-002-010900-
NORTHWEST LOUISIANA

CITY           SKY/WX    TMP DP  RH WIND       PRES   REMARKS
SHREVEPORT     PTCLDY    58  54  86 CALM      30.07F
BARKSDALE AFB  CLEAR     58  56  94 CALM      30.07F
DTN SHREVEPORT CLEAR     62  58  86 CALM      30.08S

$$

LAZ014-016-010900-
NORTHEAST LOUISIANA

CITY           SKY/WX    TMP DP  RH WIND       PRES   REMARKS
MONROE         CLEAR     57  57 100 CALM      30.08S
TALLULAH       CLEAR     53  52  96 CALM      30.07S

$$





USA.gov is the U.S. government's official web portal to all federal, state and local government web resources and services.